Tracking 32577 objects as of 14-Dec-2025
HD Live streaming from Space Station
objects crossing your sky now

SL-19 R/B

Track SL-19 R/B now!
10-day predictions


NORAD ID: 32957
Int'l Code: 2008-025E
Perigee: 1,202.7 km
Apogee: 1,512.6 km
Inclination: 82.5 °
Period: 112.7 minutes
Semi major axis: 7728 km
RCS: 6.575 m2 (large)
Launch date: May 23, 2008
Source: Commonwealth of Independent States (former USSR) (CIS)
Launch site: PLESETSK MISSILE AND SPACE COMPLEX (PKMTR)

Note: This is a ROCKET BODY
Your satellite tracking list
Your tracking list is empty




NASA's NSSDC Master Catalog

Two Line Element Set (TLE):
1 32957U 08025E   25348.14024997  .00000022  00000-0  39285-4 0  9994
2 32957  82.5018 203.0087 0200446 102.3530  13.9616 12.77757827818963
Source of the keplerian elements: AFSPC